Copper Harbor, MI

11:53 AM EDT on May 25, 2018 (GMT -0400)
Copper Harbor

Weather History for KP59 - March, 2012

Change the Weather History Date:

Sunday, March 25, 2012

  Actual Average Record
Temperature  
Mean Temperature 40 °F -  
Max Temperature 51 °F 35 °F 52 °F (2004)
Min Temperature 30 °F 23 °F 7 °F (2014)
Degree Days  
Heating Degree Days 24    
Moisture  
Dew Point 30 °F    
Average Humidity 79    
Maximum Humidity 88    
Minimum Humidity 66    
Precipitation  
Precipitation 0.00 in - - ()
Sea Level Pressure  
Sea Level Pressure 30.17 in    
Wind  
Wind Speed 17 mph (NNE)    
Max Wind Speed 23 mph    
Max Gust Speed 31 mph    
Averages and records for this station are not official NWS values.
T = Trace of Precipitation, MM = Missing Value Source: NWS Daily Summary

Daily Weather History Graph

Daily Weather History Graph

Search for Another Location

Airport or City:

Astronomy

Mar. 25, 2012 Rise Set
Actual Time 7:43 AM EDT 8:12 PM EDT
Civil Twilight 7:12 AM EDT 8:43 PM EDT
Nautical Twilight 6:36 AM EDT 9:19 PM EDT
Astronomical Twilight 5:58 AM EDT 9:57 PM EDT
Moon 8:40 AM EDT 11:45 PM EDT
Length of Visible Light 13h 30m
Length of Day
12h 28m
Waxing Crescent, 8% of the Moon is Illuminated
Mar 25
Waxing Crescent
Mar 30
First Quarter
Apr 6
Full
Apr 13
Last Quarter
Apr 21
New

Hourly Weather History & Observations

Time (EDT) Temp. Windchill Dew Point Humidity Pressure Visibility Wind Dir Wind Speed Gust Speed Precip Events Conditions
12:51 AM 51.1 °F - 46.9 °F 86% 29.92 in - NNW 16.1 mph 27.6 mph N/A   Unknown
1:51 AM 46.9 °F - 43.0 °F 86% 29.95 in - NNW 13.8 mph 24.2 mph N/A   Unknown
2:51 AM 44.1 °F 37.1 °F 39.0 °F 82% 29.98 in - NNW 15.0 mph 19.6 mph N/A   Unknown
3:51 AM 42.1 °F 34.9 °F 37.0 °F 82% 30.00 in - NNW 13.8 mph 19.6 mph N/A   Unknown
4:51 AM 41.0 °F 32.5 °F 36.0 °F 82% 30.02 in - North 17.3 mph - N/A   Unknown
5:51 AM 39.9 °F 31.1 °F 35.1 °F 83% 30.03 in - North 17.3 mph - N/A   Unknown
6:51 AM 39.0 °F 29.9 °F 35.1 °F 86% 30.05 in - North 17.3 mph - N/A   Unknown
7:51 AM 37.9 °F 27.6 °F 33.1 °F 83% 30.07 in - North 20.7 mph 31.1 mph N/A   Unknown
8:51 AM 37.0 °F 26.2 °F 32.0 °F 82% 30.11 in - North 21.9 mph - N/A   Unknown
9:51 AM 37.0 °F 26.4 °F 30.9 °F 79% 30.12 in - North 20.7 mph - N/A   Unknown
10:51 AM 36.0 °F 26.7 °F 30.9 °F 82% 30.14 in - NNE 15.0 mph - N/A   Unknown
11:51 AM 35.1 °F 24.1 °F 30.9 °F 85% 30.16 in - NNE 19.6 mph 23.0 mph N/A   Unknown
12:51 PM 34.0 °F 23.8 °F 28.9 °F 82% 30.16 in - NNE 16.1 mph - N/A   Unknown
1:51 PM 35.1 °F 23.3 °F 28.9 °F 78% 30.19 in - North 23.0 mph 27.6 mph N/A   Unknown
2:51 PM 32.0 °F 20.8 °F 28.9 °F 88% 30.20 in - NE 17.3 mph 24.2 mph N/A   Unknown
3:51 PM 32.0 °F 20.8 °F 28.9 °F 88% 30.22 in - NE 17.3 mph 24.2 mph N/A   Unknown
4:51 PM 30.9 °F 19.8 °F 26.1 °F 82% 30.25 in - NE 16.1 mph - N/A   Unknown
5:51 PM 30.9 °F 18.4 °F 25.0 °F 79% 30.27 in - NE 20.7 mph 28.8 mph N/A   Unknown
6:51 PM 30.9 °F 18.7 °F 23.0 °F 72% 30.30 in - NE 19.6 mph 31.1 mph N/A   Unknown
7:51 PM 30.9 °F 19.8 °F 21.9 °F 69% 30.32 in - NE 16.1 mph - N/A   Unknown
8:51 PM 30.9 °F 19.4 °F 21.0 °F 67% 30.35 in - NE 17.3 mph 25.3 mph N/A   Unknown
9:51 PM 30.0 °F 17.9 °F 19.9 °F 66% 30.39 in - NE 18.4 mph 24.2 mph N/A   Unknown
10:51 PM 30.0 °F 17.9 °F 19.9 °F 66% 30.41 in - NE 18.4 mph - N/A   Unknown
11:51 PM 30.0 °F 17.9 °F 21.0 °F 69% 30.42 in - NE 18.4 mph - N/A   Unknown